STARLINK-3051, 49157

Orbit data source: Space-Track

STARLINK-3051, 49157 is a payload satellite owned by SpaceX/Seattle (US) in LEO that was launched on Tue, 14 Sep 2021 UTC via an FALCON 9 launch vehicle from the Air Force Western Test Range (AFWTR). Payload-class satellites include a variety of spacecraft equipped with specific instruments for various scientific and technological missions. These include communications satellites like Starlink; space stations such as the ISS; scientific satellites like the Hubble; Earth observation satellites from companies like Planet Labs, Umbra, and HawkEye 360; GPS; miniature CubeSats for education and research; and military/defense satellites.

Loading next visibility...
Identifier
49157, 2021-082AD
Orbit
LEO
Country
Flag of USUS
Related business
Manufacturer
SpaceX/Seattle
Mission
Operational Commercial Communications
Bus & Motor
STARLINK, Unknown motor
Mass
297 kg wet, ~275 kg dry
Launch date (UTC)
2021-09-14 (4 years ago)
Launch vehicle
FALCON 9
Launch site
Air Force Western Test Range (AFWTR)
Object type
Payload
Rocket body
Debris
Shape & HBR
Box + 1 Pan, 10.1 m
Radar Cross Section
13.562 m², Large (>1 m²)

Expand to show TLE details & history
Last TLE update: 19 hours ago

TLE from 19 hours ago
0 STARLINK-3051
1 49157U 21082AD  26035.29832605  .00026941  00000-0  19280-2 0  9994
2 49157  70.0007 356.7894 0006751 290.1349  69.9086 15.04326499242617
Epoch: 2026-02-04T07:09Z
TLE epoch observation values (Epoch: 2026-02-04T07:09:35.370Z)
Latitude
-0.00009°
Longitude
114.92508°
Altitude
554.399 km
Speed
7.586 km/s
True Right ascension
23h 47m 09s
True Declination
0° 00' 00"
Sunlit
Object was in daylight at epoch
Visualization orbit readout
Latitude
Unknown
Longitude
Unknown
Altitude
Unknown
Speed
Unknown
Apparent Right ascension
Unknown
Apparent Declination
Unknown
Sunlit
N/A
Visualization observer readout
Local Sidereal Time
04:37:57
Azimuth
Unknown
Elevation
Unknown
Doppler factor
Unknown
Orbital elements
Apogee altitude
556.195 km
Perigee altitude
546.838 km
Semi-major axis
6,929.654 km
Eccentricity
0.00068
Inclination
70.0007°
RAAN
356.7894°
Arg. of periapsis
290.1349°
True anomaly
69.98127°
Mean anomaly
69.9086°
Eccentric anomaly
69.94493°
Mean motion
3.76249 °/min
Orbital period
95.68 mins
BSTAR
0.001928
Loading maneuver chart data...
Computing Atmospheric mass density...
Loading historical data...
Loading historical data...
Loading historical data...
Loading historical data...
Loading historical data...
Loading historical data...
Loading historical data...

Documentation

Showing up to 5 results
|